Location: Beang
(6.6177°N, 10.9863°W)
Time: 14:49:12
(UTC+00:00)

GEOS 3 Rocket - Pass Details

Date: 07 June 2020
Orbit: 772 x 847 km, 115.0° (Epoch: 07 July)

Event Time Altitude Azimuth Distance (km) Brightness Sun altitude
Rises 04:58:36 0° 164° (SSE) 3,245 6.6 -21.0°
Reaches altitude 10° 05:00:57 10° 170° (S) 2,323 5.8 -20.4°
Maximum altitude 05:05:43 44° 242° (WSW) 1,066 3.7 -19.4°
Drops below altitude 10° 05:10:33 10° 314° (NW) 2,355 5.8 -18.3°
Sets 05:12:57 0° 320° (NW) 3,295 6.6 -17.8°
